Location: Marlborough
(51.4223°N, 1.7415°W)
Time: 21:39:17
(UTC+01:00)

Tiangong - Visible Passes

Search period start: 21 May 2024 00:00
Search period end: 31 May 2024 00:00
Orbit: 371 x 375 km, 41.5° (Epoch: 21 May)

Date Brightness Start Highest point End Pass type
(mag) Time Alt. Az. Time Alt. Az. Time Alt. Az.
26 May 0.2 04:02:16 10° S 04:03:01 11° SSE 04:03:47 10° SSE visible
28 May 0.0 03:31:04 12° S 03:31:29 12° S 03:32:48 10° SE visible
29 May -0.1 04:01:49 10° SSW 04:03:26 13° S 04:05:03 10° SSE visible
30 May 0.1 03:00:29 12° SSE 03:00:29 12° SSE 03:01:04 10° SE visible
